START_TIME,STEP,MOV.,H8,t_acc.,H43,t_acc.,M25,t_acc.,H9,t_acc.
1981-08-26 00:00:30.420 ,7,0,0.,12.0,0.,12.0,0.,12.0,0.,12.0
1981-08-26 00:00:42.420 ,7,0,0.,12.0,0.,12.0,0.,12.0,0.,12.0
1981-08-26 00:00:54.420 ,6,0,0.,12.0,0.,12.0,0.,12.0,0.,12.0
1981-08-26 00:01:06.420 ,6,0,0.,12.0,0.,12.0,0.,12.0,0.,12.0
1981-08-26 00:01:18.420 ,6,0,0.,12.0,0.,12.0,0.,12.0,0.,12.0
1981-08-26 00:01:30.420 ,6,0,0.,12.0,0.,12.0,0.,12.0,0.,12.0
1981-08-26 00:01:42.420 ,5,0,0.,12.0,0.,12.0,0.,12.0,0.,12.0
1981-08-26 00:01:54.420 ,5,0,0.,12.0,0.,12.0,0.,12.0,0.,12.0
1981-08-26 00:02:06.420 ,5,0,0.,12.0,0.,12.0,0.,12.0,0.,12.0
1981-08-26 00:02:18.420 ,5,0,0.,12.0,0.,12.0,0.,12.0,0.,12.0
1981-08-26 00:02:30.420 ,4,0,0.,12.0,0.,12.0,0.,12.0,0.,12.0
1981-08-26 00:02:42.420 ,4,0,0.,12.0,0.,12.0,0.,12.0,0.,12.0
1981-08-26 00:02:54.420 ,4,0,0.,12.0,0.,12.0,0.,12.0,0.,12.0
1981-08-26 00:03:06.420 ,4,0,0.,12.0,0.,12.0,0.,12.0,0.,12.0
1981-08-26 00:03:18.420 ,3,0,0.,12.0,0.,12.0,0.,12.0,0.,12.0
1981-08-26 00:03:30.420 ,3,0,0.,12.0,0.,12.0,0.,12.0,0.,12.0
1981-08-26 00:03:42.420 ,3,0,0.,12.0,0.,12.0,0.,12.0,0.,12.0
1981-08-26 00:03:54.420 ,3,0,0.,12.0,0.,12.0,0.,12.0,0.,12.0
1981-08-26 00:04:06.420 ,0,0,0.,12.0,0.,12.0,0.,12.0,0.,12.0
1981-08-26 00:04:18.420 ,0,0,0.,12.0,0.,12.0,0.,12.0,0.,12.0
1981-08-26 00:04:30.420 ,0,0,0.,12.0,0.,12.0,0.,12.0,0.,12.0
1981-08-26 00:04:42.420 ,0,0,0.,12.0,0.,12.0,0.,12.0,0.,12.0
1981-08-26 00:04:54.420 ,1,0,0.,12.0,0.,12.0,0.,12.0,0.,12.0
1981-08-26 00:05:06.420 ,1,0,0.,12.0,0.,12.0,0.,12.0,0.,12.0
1981-08-26 00:05:18.420 ,1,0,0.,12.0,0.,12.0,0.,12.0,0.,12.0
1981-08-26 00:05:30.420 ,1,0,0.,12.0,0.,12.0,0.,12.0,0.,12.0
1981-08-26 00:05:42.420 ,0,0,0.,12.0,0.,12.0,0.,12.0,0.,12.0
1981-08-26 00:05:54.420 ,0,0,0.,12.0,0.,12.0,0.,12.0,0.,12.0
1981-08-26 00:06:06.420 ,0,0,0.,12.0,0.,12.0,0.,12.0,0.,12.0
1981-08-26 00:06:18.420 ,0,0,0.,12.0,0.,12.0,0.,12.0,0.,12.0
1981-08-26 00:06:30.420 ,0,0,0.,12.0,0.,12.0,0.,12.0,0.,12.0
1981-08-26 00:06:42.420 ,0,0,0.,12.0,0.,12.0,0.,12.0,0.,12.0
1981-08-26 00:06:54.420 ,0,0,0.,12.0,0.,12.0,0.,12.0,0.,12.0
1981-08-26 00:07:06.420 ,0,0,0.,12.0,0.,12.0,0.,12.0,0.,12.0
1981-08-26 00:07:18.420 ,1,0,0.,12.0,0.,12.0,0.,12.0,0.,12.0
1981-08-26 00:07:30.420 ,1,0,0.,12.0,0.,12.0,0.,12.0,0.,12.0
1981-08-26 00:07:42.420 ,1,0,0.,12.0,0.,12.0,0.,12.0,0.,12.0
1981-08-26 00:07:54.420 ,1,0,0.,12.0,0.,12.0,0.,12.0,0.,12.0
1981-08-26 00:08:06.420 ,2,0,0.,12.0,0.,12.0,0.,12.0,0.,12.0
1981-08-26 00:08:18.420 ,2,0,0.,12.0,0.,12.0,0.,12.0,0.,12.0
1981-08-26 00:08:30.420 ,2,0,0.,12.0,0.,12.0,0.,12.0,0.,12.0
1981-08-26 00:08:42.420 ,2,0,0.,12.0,0.,12.0,0.,12.0,0.,12.0
1981-08-26 00:08:54.420 ,3,0,0.,12.0,0.,12.0,0.,12.0,0.,12.0
1981-08-26 00:09:06.420 ,3,0,0.,12.0,0.,12.0,0.,12.0,0.,12.0
1981-08-26 00:09:18.420 ,3,0,0.,12.0,0.,12.0,0.,12.0,0.,12.0
1981-08-26 00:09:30.420 ,3,0,0.,12.0,0.,12.0,0.,12.0,0.,12.0
1981-08-26 00:09:42.420 ,4,0,0.,12.0,0.,12.0,0.,12.0,0.,12.0
1981-08-26 00:09:54.420 ,4,0,0.,12.0,0.,12.0,0.,12.0,0.,12.0
1981-08-26 00:10:06.420 ,4,0,0.,12.0,0.,12.0,0.,12.0,0.,12.0
1981-08-26 00:10:18.420 ,4,0,0.,12.0,0.,12.0,0.,12.0,0.,12.0
1981-08-26 00:10:30.420 ,5,0,0.,12.0,0.,12.0,0.,12.0,0.,12.0
1981-08-26 00:10:42.420 ,5,0,0.,12.0,0.,12.0,0.,12.0,0.,12.0
1981-08-26 00:10:54.420 ,5,0,0.,12.0,0.,12.0,0.,12.0,0.,12.0
1981-08-26 00:11:06.420 ,5,0,0.,12.0,0.,12.0,0.,12.0,0.,12.0
1981-08-26 00:11:18.420 ,6,0,0.,12.0,0.,12.0,0.,12.0,0.,12.0
1981-08-26 00:11:30.420 ,6,0,0.,12.0,0.,12.0,0.,12.0,0.,12.0
1981-08-26 00:11:42.420 ,6,0,0.,12.0,0.,12.0,0.,12.0,0.,12.0
1981-08-26 00:11:54.420 ,6,0,0.,12.0,0.,12.0,0.,12.0,0.,12.0
1981-08-26 00:12:06.420 ,7,0,0.,12.0,0.,12.0,0.,12.0,0.,12.0
1981-08-26 00:12:18.420 ,7,0,0.,12.0,0.,12.0,0.,12.0,0.,12.0
1981-08-26 00:12:30.420 ,7,0,0.,12.0,0.,12.0,0.,12.0,0.,12.0
1981-08-26 00:12:42.420 ,7,0,0.,12.0,0.,12.0,0.,12.0,0.,12.0
1981-08-26 00:12:54.420 ,7,0,0.,12.0,0.,12.0,0.,12.0,0.,12.0
1981-08-26 00:13:06.420 ,7,0,0.,12.0,0.,12.0,0.,12.0,0.,12.0
1981-08-26 00:13:18.420 ,7,0,0.,12.0,0.,12.0,0.,12.0,0.,12.0
1981-08-26 00:13:30.420 ,7,0,0.,12.0,0.,12.0,0.,12.0,0.,12.0
1981-08-26 00:13:42.420 ,6,0,0.,12.0,0.,12.0,0.,12.0,0.,12.0
1981-08-26 00:13:54.420 ,6,0,0.,12.0,0.,12.0,0.,12.0,0.,12.0
1981-08-26 00:14:06.420 ,6,0,0.,12.0,0.,12.0,0.,12.0,0.,12.0
1981-08-26 00:14:18.420 ,6,0,0.,12.0,0.,12.0,0.,12.0,0.,12.0
1981-08-26 00:14:30.420 ,5,0,0.,12.0,0.,12.0,0.,12.0,0.,12.0
1981-08-26 00:14:42.420 ,5,0,0.,12.0,0.,12.0,0.,12.0,0.,12.0
1981-08-26 00:14:54.420 ,5,0,0.,12.0,0.,12.0,0.,12.0,0.,12.0
1981-08-26 00:15:06.420 ,5,0,0.,12.0,0.,12.0,0.,12.0,0.,12.0
1981-08-26 00:15:18.420 ,4,0,0.,12.0,0.,12.0,0.,12.0,0.,12.0
1981-08-26 00:15:30.420 ,4,0,0.,12.0,0.,12.0,0.,12.0,0.,12.0
1981-08-26 00:15:42.420 ,4,0,0.,12.0,0.,12.0,0.,12.0,0.,12.0
1981-08-26 00:15:54.420 ,4,0,0.,12.0,0.,12.0,0.,12.0,0.,12.0
1981-08-26 00:16:06.420 ,3,0,0.,12.0,0.,12.0,0.,12.0,0.,12.0
1981-08-26 00:16:18.420 ,3,0,0.,12.0,0.,12.0,0.,12.0,0.,12.0
1981-08-26 00:16:30.420 ,3,0,0.,12.0,0.,12.0,0.,12.0,0.,12.0
1981-08-26 00:16:42.420 ,3,0,0.,12.0,0.,12.0,0.,12.0,0.,12.0
1981-08-26 00:16:54.420 ,2,0,0.,12.0,0.,12.0,0.,12.0,0.,12.0
1981-08-26 00:17:06.420 ,2,0,0.,12.0,0.,12.0,0.,12.0,0.,12.0
1981-08-26 00:17:18.420 ,2,0,0.,12.0,0.,12.0,0.,12.0,0.,12.0
1981-08-26 00:17:30.420 ,2,0,0.,12.0,0.,12.0,0.,12.0,0.,12.0
1981-08-26 00:17:42.420 ,1,0,0.,12.0,0.,12.0,0.,12.0,0.,12.0
1981-08-26 00:17:54.420 ,1,0,0.,12.0,0.,12.0,0.,12.0,0.,12.0
1981-08-26 00:18:06.420 ,1,0,0.,12.0,0.,12.0,0.,12.0,0.,12.0
1981-08-26 00:18:18.420 ,1,0,0.,12.0,0.,12.0,0.,12.0,0.,12.0
1981-08-26 00:18:30.420 ,0,0,0.,12.0,0.,12.0,0.,12.0,0.,12.0
1981-08-26 00:18:42.420 ,0,0,0.,12.0,0.,12.0,0.,12.0,0.,12.0
1981-08-26 00:18:54.420 ,0,0,0.,12.0,0.,12.0,0.,12.0,0.,12.0
1981-08-26 00:19:06.420 ,0,0,0.,12.0,0.,12.0,0.,12.0,0.,12.0
1981-08-26 00:19:18.420 ,0,0,0.,12.0,0.,12.0,0.,12.0,0.,12.0
1981-08-26 00:19:30.420 ,0,0,0.,12.0,0.,12.0,0.,12.0,0.,12.0
1981-08-26 00:19:42.420 ,0,0,0.,12.0,0.,12.0,0.,12.0,0.,12.0
1981-08-26 00:19:54.420 ,0,0,0.,12.0,0.,12.0,0.,12.0,0.,12.0
1981-08-26 00:20:06.420 ,1,0,0.,12.0,0.,12.0,0.,12.0,0.,12.0
1981-08-26 00:20:18.420 ,1,0,0.,12.0,0.,12.0,0.,12.0,0.,12.0
1981-08-26 00:20:30.420 ,1,0,0.,12.0,0.,12.0,0.,12.0,0.,12.0
1981-08-26 00:20:42.420 ,1,0,0.,12.0,0.,12.0,0.,12.0,0.,12.0
1981-08-26 00:20:54.420 ,2,0,0.,12.0,0.,12.0,0.,12.0,0.,12.0
1981-08-26 00:21:06.420 ,2,0,0.,12.0,0.,12.0,0.,12.0,0.,12.0
1981-08-26 00:21:18.420 ,2,0,0.,12.0,0.,12.0,0.,12.0,0.,12.0
1981-08-26 00:21:30.420 ,2,0,0.,12.0,0.,12.0,0.,12.0,0.,12.0
1981-08-26 00:21:42.420 ,3,0,0.,12.0,0.,12.0,0.,12.0,0.,12.0
1981-08-26 00:21:54.420 ,3,0,0.,12.0,0.,12.0,0.,12.0,0.,12.0
1981-08-26 00:22:06.420 ,3,0,0.,12.0,0.,12.0,0.,12.0,0.,12.0
1981-08-26 00:22:18.420 ,3,0,0.,12.0,0.,12.0,0.,12.0,0.,12.0
1981-08-26 00:22:30.420 ,4,0,0.,12.0,0.,12.0,0.,12.0,0.,12.0
1981-08-26 00:22:42.420 ,4,0,0.,12.0,0.,12.0,0.,12.0,0.,12.0
1981-08-26 00:22:54.420 ,4,0,0.,12.0,0.,12.0,0.,12.0,0.,12.0
1981-08-26 00:23:06.420 ,4,0,0.,12.0,0.,12.0,0.,12.0,0.,12.0
1981-08-26 00:23:18.420 ,5,0,0.,12.0,0.,12.0,0.,12.0,0.,12.0
1981-08-26 00:23:30.420 ,5,0,0.,12.0,0.,12.0,0.,12.0,0.,12.0
1981-08-26 00:23:42.420 ,5,0,0.,12.0,0.,12.0,0.,12.0,0.,12.0
1981-08-26 00:23:54.420 ,5,0,0.,12.0,0.,12.0,0.,12.0,0.,12.0
1981-08-26 00:24:06.420 ,6,0,0.,12.0,0.,12.0,0.,12.0,0.,12.0
1981-08-26 00:24:18.420 ,6,0,0.,12.0,0.,12.0,0.,12.0,0.,12.0
1981-08-26 00:24:30.420 ,6,0,0.,12.0,0.,12.0,0.,12.0,0.,12.0
1981-08-26 00:24:42.420 ,6,0,0.,12.0,0.,12.0,0.,12.0,0.,12.0
1981-08-26 00:24:54.420 ,7,0,0.,12.0,0.,12.0,0.,12.0,0.,12.0
1981-08-26 00:25:06.420 ,7,0,0.,12.0,0.,12.0,0.,12.0,0.,12.0
1981-08-26 00:25:18.420 ,7,0,0.,12.0,0.,12.0,0.,12.0,0.,12.0
1981-08-26 00:25:30.420 ,7,0,0.,12.0,0.,12.0,0.,12.0,0.,12.0
1981-08-26 00:25:42.420 ,7,0,0.,12.0,0.,12.0,0.,12.0,0.,12.0
1981-08-26 00:25:54.420 ,7,0,0.,12.0,0.,12.0,0.,12.0,0.,12.0
1981-08-26 00:26:06.420 ,7,0,0.,12.0,0.,12.0,0.,12.0,0.,12.0
1981-08-26 00:26:18.420 ,7,0,0.,12.0,0.,12.0,0.,12.0,0.,12.0
1981-08-26 00:26:30.420 ,6,0,0.,12.0,0.,12.0,0.,12.0,0.,12.0
1981-08-26 00:26:42.420 ,6,0,0.,12.0,0.,12.0,0.,12.0,0.,12.0
1981-08-26 00:26:54.420 ,6,0,0.,12.0,0.,12.0,0.,12.0,0.,12.0
1981-08-26 00:27:06.420 ,6,0,0.,12.0,0.,12.0,0.,12.0,0.,12.0
1981-08-26 00:27:18.420 ,5,0,0.,12.0,0.,12.0,0.,12.0,0.,12.0
1981-08-26 00:27:30.420 ,5,0,0.,12.0,0.,12.0,0.,12.0,0.,12.0
1981-08-26 00:27:42.420 ,5,0,0.,12.0,0.,12.0,0.,12.0,0.,12.0
1981-08-26 00:27:54.420 ,5,0,0.,12.0,0.,12.0,0.,12.0,0.,12.0
1981-08-26 00:28:06.420 ,4,0,0.,12.0,0.,12.0,0.,12.0,0.,12.0
1981-08-26 00:28:18.420 ,4,0,0.,12.0,0.,12.0,0.,12.0,0.,12.0
1981-08-26 00:28:30.420 ,4,0,0.,12.0,0.,12.0,0.,12.0,0.,12.0
1981-08-26 00:28:42.420 ,4,0,0.,12.0,0.,12.0,0.,12.0,0.,12.0
1981-08-26 00:28:54.420 ,3,0,0.,12.0,0.,12.0,0.,12.0,0.,12.0
1981-08-26 00:29:06.420 ,3,0,0.,12.0,0.,12.0,0.,12.0,0.,12.0
1981-08-26 00:29:18.420 ,3,0,0.,12.0,0.,12.0,0.,12.0,0.,12.0
1981-08-26 00:29:30.420 ,3,0,0.,12.0,0.,12.0,0.,12.0,0.,12.0
1981-08-26 00:29:42.420 ,2,0,0.,12.0,0.,12.0,0.,12.0,0.,12.0
1981-08-26 00:29:54.420 ,2,0,0.,12.0,0.,12.0,0.,12.0,0.,12.0
1981-08-26 00:30:06.420 ,2,0,0.,12.0,0.,12.0,0.,12.0,0.,12.0
1981-08-26 00:30:18.420 ,2,0,0.,12.0,0.,12.0,0.,12.0,0.,12.0
1981-08-26 00:30:30.420 ,1,0,0.,12.0,0.,12.0,0.,12.0,0.,12.0
1981-08-26 00:30:42.420 ,1,0,0.,12.0,0.,12.0,0.,12.0,0.,12.0
1981-08-26 00:30:54.420 ,1,0,0.,12.0,0.,12.0,0.,12.0,0.,12.0
1981-08-26 00:31:06.420 ,1,0,0.,12.0,0.,12.0,0.,12.0,0.,12.0
1981-08-26 00:31:18.420 ,0,0,0.,12.0,0.,12.0,0.,12.0,0.,12.0
1981-08-26 00:31:30.420 ,0,0,0.,12.0,0.,12.0,0.,12.0,0.,12.0
1981-08-26 00:31:42.420 ,0,0,0.,12.0,0.,12.0,0.,12.0,0.,12.0
1981-08-26 00:31:54.420 ,0,0,0.,12.0,0.,12.0,0.,12.0,0.,12.0
1981-08-26 00:32:06.420 ,0,0,0.,12.0,0.,12.0,0.,12.0,0.,12.0
1981-08-26 00:32:18.420 ,0,0,0.,12.0,0.,12.0,0.,12.0,0.,12.0
1981-08-26 00:32:30.420 ,0,0,0.,12.0,0.,12.0,0.,12.0,0.,12.0
1981-08-26 00:32:42.420 ,0,0,0.,12.0,0.,12.0,0.,12.0,0.,12.0
1981-08-26 00:32:54.420 ,1,0,0.,12.0,0.,12.0,0.,12.0,0.,12.0
1981-08-26 00:33:06.420 ,1,0,0.,12.0,0.,12.0,0.,12.0,0.,12.0
1981-08-26 00:33:18.420 ,1,0,0.,12.0,0.,12.0,0.,12.0,0.,12.0
1981-08-26 00:33:30.420 ,1,0,0.,12.0,0.,12.0,0.,12.0,0.,12.0
1981-08-26 00:33:42.420 ,2,0,0.,12.0,0.,12.0,0.,12.0,0.,12.0
1981-08-26 00:33:54.420 ,2,0,0.,12.0,0.,12.0,0.,12.0,0.,12.0
1981-08-26 00:34:06.420 ,2,0,0.,12.0,0.,12.0,0.,12.0,0.,12.0
1981-08-26 00:34:18.420 ,2,0,0.,12.0,0.,12.0,0.,12.0,0.,12.0
1981-08-26 00:34:30.420 ,3,0,0.,12.0,0.,12.0,0.,12.0,0.,12.0
1981-08-26 00:34:42.420 ,3,0,0.,12.0,0.,12.0,0.,12.0,0.,12.0
1981-08-26 00:34:54.420 ,3,0,0.,12.0,0.,12.0,0.,12.0,0.,12.0
1981-08-26 00:35:06.420 ,3,0,0.,12.0,0.,12.0,0.,12.0,0.,12.0
1981-08-26 00:35:18.420 ,4,0,0.,12.0,0.,12.0,0.,12.0,0.,12.0
1981-08-26 00:35:30.420 ,4,0,0.,12.0,0.,12.0,0.,12.0,0.,12.0
1981-08-26 00:35:42.420 ,4,0,0.,12.0,0.,12.0,0.,12.0,0.,12.0
1981-08-26 00:35:54.420 ,4,0,0.,12.0,0.,12.0,0.,12.0,0.,12.0
1981-08-26 00:36:06.420 ,5,0,0.,12.0,0.,12.0,0.,12.0,0.,12.0
1981-08-26 00:36:18.420 ,5,0,0.,12.0,0.,12.0,0.,12.0,0.,12.0
1981-08-26 00:36:30.420 ,5,0,0.,12.0,0.,12.0,0.,12.0,0.,12.0
1981-08-26 00:36:42.420 ,5,0,0.,12.0,0.,12.0,0.,12.0,0.,12.0
1981-08-26 00:36:54.420 ,6,0,0.,12.0,0.,12.0,0.,12.0,0.,12.0
1981-08-26 00:37:06.420 ,6,0,0.,12.0,0.,12.0,0.,12.0,0.,12.0
1981-08-26 00:37:18.420 ,6,0,0.,12.0,0.,12.0,0.,12.0,0.,12.0
1981-08-26 00:37:30.420 ,6,0,0.,12.0,0.,12.0,0.,12.0,0.,12.0
1981-08-26 00:37:42.420 ,7,0,0.,12.0,0.,12.0,0.,12.0,0.,12.0
1981-08-26 00:37:54.420 ,7,0,0.,12.0,0.,12.0,0.,12.0,0.,12.0
1981-08-26 00:38:06.420 ,7,0,0.,12.0,0.,12.0,0.,12.0,0.,12.0
1981-08-26 00:38:18.420 ,7,0,0.,12.0,0.,12.0,0.,12.0,0.,12.0
1981-08-26 00:38:30.420 ,7,0,0.,12.0,0.,12.0,0.,12.0,0.,12.0
1981-08-26 00:38:42.420 ,7,0,0.,12.0,0.,12.0,0.,12.0,0.,12.0
1981-08-26 00:38:54.420 ,7,0,0.,12.0,0.,12.0,0.,12.0,0.,12.0
1981-08-26 00:39:06.420 ,7,0,0.,12.0,0.,12.0,0.,12.0,0.,12.0
1981-08-26 00:39:18.420 ,6,0,0.,12.0,0.,12.0,0.,12.0,0.,12.0
1981-08-26 00:39:30.420 ,6,0,0.,12.0,0.,12.0,0.,12.0,0.,12.0
1981-08-26 00:39:42.420 ,6,0,0.,12.0,0.,12.0,0.,12.0,0.,12.0
1981-08-26 00:39:54.420 ,6,0,0.,12.0,0.,12.0,0.,12.0,0.,12.0
1981-08-26 00:40:06.420 ,5,0,0.,12.0,0.,12.0,0.,12.0,0.,12.0
1981-08-26 00:40:18.420 ,5,0,0.,12.0,0.,12.0,0.,12.0,0.,12.0
1981-08-26 00:40:30.420 ,5,0,0.,12.0,0.,12.0,0.,12.0,0.,12.0
1981-08-26 00:40:42.420 ,5,0,0.,12.0,0.,12.0,0.,12.0,0.,12.0
1981-08-26 00:40:54.420 ,4,0,0.,12.0,0.,12.0,0.,12.0,0.,12.0
1981-08-26 00:41:06.420 ,4,0,0.,12.0,0.,12.0,0.,12.0,0.,12.0
1981-08-26 00:41:18.420 ,4,0,0.,12.0,0.,12.0,0.,12.0,0.,12.0
1981-08-26 00:41:30.420 ,4,0,0.,12.0,0.,12.0,0.,12.0,0.,12.0
1981-08-26 00:41:42.420 ,0,0,0.,12.0,0.,12.0,0.,12.0,0.,12.0
1981-08-26 00:41:54.420 ,0,0,0.,12.0,0.,12.0,0.,12.0,0.,12.0
1981-08-26 00:42:06.420 ,0,0,0.,12.0,0.,12.0,0.,12.0,0.,12.0
1981-08-26 00:42:18.420 ,0,0,0.,12.0,0.,12.0,0.,12.0,0.,12.0
1981-08-26 00:42:30.420 ,0,0,0.,12.0,0.,12.0,0.,12.0,0.,12.0
1981-08-26 00:42:42.420 ,0,0,0.,12.0,0.,12.0,0.,12.0,0.,12.0
1981-08-26 00:42:54.420 ,0,0,0.,12.0,0.,12.0,0.,12.0,0.,12.0
1981-08-26 00:43:06.420 ,0,0,0.,12.0,0.,12.0,0.,12.0,0.,12.0
1981-08-26 00:43:18.420 ,0,0,0.,12.0,0.,12.0,0.,12.0,0.,12.0
1981-08-26 00:43:30.420 ,0,0,0.,12.0,0.,12.0,0.,12.0,0.,12.0
1981-08-26 00:43:42.420 ,0,0,0.,12.0,0.,12.0,0.,12.0,0.,12.0
1981-08-26 00:43:54.420 ,0,0,0.,12.0,0.,12.0,0.,12.0,0.,12.0
1981-08-26 00:44:06.420 ,0,0,0.,12.0,0.,12.0,0.,12.0,0.,12.0
1981-08-26 00:44:18.420 ,0,0,0.,12.0,0.,12.0,0.,12.0,0.,12.0
1981-08-26 00:44:30.420 ,0,0,0.,12.0,0.,12.0,0.,12.0,0.,12.0
1981-08-26 00:44:42.420 ,0,0,0.,12.0,0.,12.0,0.,12.0,0.,12.0
1981-08-26 00:44:54.420 ,0,0,0.,12.0,0.,12.0,0.,12.0,0.,12.0
1981-08-26 00:45:06.420 ,0,0,0.,12.0,0.,12.0,0.,12.0,0.,12.0
1981-08-26 00:45:18.420 ,0,0,0.,12.0,0.,12.0,0.,12.0,0.,12.0
1981-08-26 00:45:30.420 ,0,0,0.,12.0,0.,12.0,0.,12.0,0.,12.0
1981-08-26 00:45:42.420 ,0,0,0.,12.0,0.,12.0,0.,12.0,0.,12.0
1981-08-26 00:45:54.420 ,0,0,0.,12.0,0.,12.0,0.,12.0,0.,12.0
1981-08-26 00:46:06.420 ,0,0,0.,12.0,0.,12.0,0.,12.0,0.,12.0
1981-08-26 00:46:18.420 ,0,0,0.,12.0,0.,12.0,0.,12.0,0.,12.0
1981-08-26 00:46:30.420 ,0,0,0.,12.0,0.,12.0,0.,12.0,0.,12.0
1981-08-26 00:46:42.420 ,0,0,0.,12.0,0.,12.0,0.,12.0,0.,12.0
1981-08-26 00:46:54.420 ,0,0,0.,12.0,0.,12.0,0.,12.0,0.,12.0
1981-08-26 00:47:06.420 ,0,0,0.,12.0,0.,12.0,0.,12.0,0.,12.0
1981-08-26 00:47:18.420 ,0,0,0.,12.0,0.,12.0,0.,12.0,0.,12.0
1981-08-26 00:47:30.420 ,0,0,0.,12.0,0.,12.0,0.,12.0,0.,12.0
1981-08-26 00:47:42.420 ,0,0,0.,12.0,0.,12.0,0.,12.0,0.,12.0
1981-08-26 00:47:54.420 ,0,0,0.,12.0,0.,12.0,0.,12.0,0.,12.0
1981-08-26 00:48:06.420 ,0,0,0.,12.0,0.,12.0,0.,12.0,0.,12.0
1981-08-26 00:48:18.420 ,0,0,0.,12.0,0.,12.0,0.,12.0,0.,12.0
1981-08-26 00:48:30.420 ,0,0,0.,12.0,0.,12.0,0.,12.0,0.,12.0
1981-08-26 00:48:42.420 ,0,0,0.,12.0,0.,12.0,0.,12.0,0.,12.0
1981-08-26 00:48:54.420 ,0,0,0.,12.0,0.,12.0,0.,12.0,0.,12.0
1981-08-26 00:49:06.420 ,0,0,0.,12.0,0.,12.0,0.,12.0,0.,12.0
1981-08-26 00:49:18.420 ,0,0,0.,12.0,0.,12.0,0.,12.0,0.,12.0
1981-08-26 00:49:30.420 ,0,0,0.,12.0,0.,12.0,0.,12.0,0.,12.0
1981-08-26 00:49:42.420 ,0,0,0.,12.0,0.,12.0,0.,12.0,0.,12.0
1981-08-26 00:49:54.420 ,0,0,0.,12.0,0.,12.0,0.,12.0,0.,12.0
1981-08-26 00:50:06.420 ,0,0,0.,12.0,0.,12.0,0.,12.0,0.,12.0
1981-08-26 00:50:18.420 ,0,0,0.,12.0,0.,12.0,0.,12.0,0.,12.0
1981-08-26 00:50:30.420 ,0,0,0.,12.0,0.,12.0,0.,12.0,0.,12.0
1981-08-26 00:50:42.420 ,0,0,0.,12.0,0.,12.0,0.,12.0,0.,12.0
1981-08-26 00:50:54.420 ,0,0,0.,12.0,0.,12.0,0.,12.0,0.,12.0
1981-08-26 00:51:06.420 ,0,0,0.,12.0,0.,12.0,0.,12.0,0.,12.0
1981-08-26 00:51:18.420 ,0,0,0.,12.0,0.,12.0,0.,12.0,0.,12.0
1981-08-26 00:51:30.420 ,0,0,0.,12.0,0.,12.0,0.,12.0,0.,12.0
1981-08-26 00:51:42.420 ,0,0,0.,12.0,0.,12.0,0.,12.0,0.,12.0
1981-08-26 00:51:54.420 ,0,0,0.,12.0,0.,12.0,0.,12.0,0.,12.0
1981-08-26 00:52:06.420 ,0,0,0.,12.0,0.,12.0,0.,12.0,0.,12.0
1981-08-26 00:52:18.420 ,0,0,0.,12.0,0.,12.0,0.,12.0,0.,12.0
1981-08-26 00:52:30.420 ,0,0,0.,12.0,0.,12.0,0.,12.0,0.,12.0
1981-08-26 00:52:42.420 ,0,0,0.,12.0,0.,12.0,0.,12.0,0.,12.0
1981-08-26 00:52:54.420 ,0,0,0.,12.0,0.,12.0,0.,12.0,0.,12.0
1981-08-26 00:53:06.420 ,0,0,0.,12.0,0.,12.0,0.,12.0,0.,12.0
1981-08-26 00:53:18.420 ,0,0,0.,12.0,0.,12.0,0.,12.0,0.,12.0
1981-08-26 00:53:30.420 ,0,0,0.,12.0,0.,12.0,0.,12.0,0.,12.0
1981-08-26 00:53:42.420 ,0,0,0.,12.0,0.,12.0,0.,12.0,0.,12.0
1981-08-26 00:53:54.420 ,0,0,0.,12.0,0.,12.0,0.,12.0,0.,12.0
1981-08-26 00:54:06.420 ,0,0,0.,12.0,0.,12.0,0.,12.0,0.,12.0
1981-08-26 00:54:18.420 ,0,0,0.,12.0,0.,12.0,0.,12.0,0.,12.0
1981-08-26 00:54:30.420 ,0,0,0.,12.0,0.,12.0,0.,12.0,0.,12.0
1981-08-26 00:54:42.420 ,0,0,0.,12.0,0.,12.0,0.,12.0,0.,12.0
1981-08-26 00:54:54.420 ,0,0,0.,12.0,0.,12.0,0.,12.0,0.,12.0
1981-08-26 00:55:06.420 ,0,0,0.,12.0,0.,12.0,0.,12.0,0.,12.0
1981-08-26 00:55:18.420 ,0,0,0.,12.0,0.,12.0,0.,12.0,0.,12.0
1981-08-26 00:55:30.420 ,0,0,0.,12.0,0.,12.0,0.,12.0,0.,12.0
1981-08-26 00:55:42.420 ,0,0,0.,12.0,0.,12.0,0.,12.0,0.,12.0
1981-08-26 00:55:54.420 ,0,0,0.,12.0,0.,12.0,0.,12.0,0.,12.0
1981-08-26 00:56:06.420 ,0,0,0.,12.0,0.,12.0,0.,12.0,0.,12.0
1981-08-26 00:56:18.420 ,0,0,0.,12.0,0.,12.0,0.,12.0,0.,12.0
1981-08-26 00:56:30.420 ,0,0,0.,12.0,0.,12.0,0.,12.0,0.,12.0
1981-08-26 00:56:42.420 ,0,0,0.,12.0,0.,12.0,0.,12.0,0.,12.0
1981-08-26 00:56:54.420 ,0,0,0.,12.0,0.,12.0,0.,12.0,0.,12.0
1981-08-26 00:57:06.420 ,0,0,0.,12.0,0.,12.0,0.,12.0,0.,12.0
1981-08-26 00:57:18.420 ,0,0,0.,12.0,0.,12.0,0.,12.0,0.,12.0
1981-08-26 00:57:30.420 ,0,0,0.,12.0,0.,12.0,0.,12.0,0.,12.0
1981-08-26 00:57:42.420 ,0,0,0.,12.0,0.,12.0,0.,12.0,0.,12.0
1981-08-26 00:57:54.420 ,0,0,0.,12.0,0.,12.0,0.,12.0,0.,12.0
1981-08-26 00:58:06.420 ,0,0,0.,12.0,0.,12.0,0.,12.0,0.,12.0
1981-08-26 00:58:18.420 ,0,0,0.,12.0,0.,12.0,0.,12.0,0.,12.0
1981-08-26 00:58:30.420 ,0,0,0.,12.0,0.,12.0,0.,12.0,0.,12.0
1981-08-26 00:58:42.420 ,0,0,0.,12.0,0.,12.0,0.,12.0,0.,12.0
1981-08-26 00:58:54.420 ,0,0,0.,12.0,0.,12.0,0.,12.0,0.,12.0
1981-08-26 00:59:06.420 ,0,0,0.,12.0,0.,12.0,0.,12.0,0.,12.0
1981-08-26 00:59:18.420 ,0,0,0.,12.0,0.,12.0,0.,12.0,0.,12.0
1981-08-26 00:59:30.420 ,0,0,0.,12.0,0.,12.0,0.,12.0,0.,12.0
1981-08-26 00:59:42.420 ,0,0,0.,12.0,0.,12.0,0.,12.0,0.,12.0
1981-08-26 00:59:54.420 ,0,0,0.,12.0,0.,12.0,0.,12.0,0.,12.0
1981-08-26 01:00:06.420 ,0,0,0.,12.0,0.,12.0,0.,12.0,0.,12.0
1981-08-26 01:00:18.420 ,0,0,0.,12.0,0.,12.0,0.,12.0,0.,12.0
